Wind_Speed
24 23 24 24 19 17 17 17 18 16 17 17 15 15 15 16 12 13 12 10 13 15 17 15 27 19 13 10 7 8 8 10 10 10 14 12 8 6 5 5 4 5 2 6 6 5 3
22 24 22 25 19 18 16 17 16 15 16 14 12 12 11 11 10 9 12 13 16 19 15 14 19 16 7 9 7 9 10 10 9 12 13 9 7 10 10 5 6 5 9 5 4 3 2
22 25 25 25 20 19 16 15 14 14 13 14 12 13 12 11 11 13 16 17 21 23 22 25 18 11 18 10 8 9 11 11 9 10 11 13 12 2 7 6 8 7 4 2 5 3 2
24 25 25 25 21 20 18 16 16 14 12 16 13 13 13 14 13 17 18 20 18 21 29 25 20 14 7 9 10 10 12 11 11 12 12 12 10 13 6 13 6 5 5 2 2 4 3
24 24 23 24 19 18 17 16 16 14 19 19 16 16 15 15 16 21 26 22 20 20 25 24 17 12 5 8 9 11 10 12 11 9 9 8 6 7 5 5 5 6 3 1 4 2 3
22 23 22 22 21 18 19 19 19 18 20 17 19 19 17 18 17 19 27 24 24 21 21 16 14 10 5 5 8 10 13 13 9 12 9 5 6 4 5 5 4 4 3 0 1 5 3
22 21 22 20 20 20 20 20 21 18 18 19 18 18 16 18 20 26 26 18 10 15 32 16 13 16 14 13 9 9 12 12 10 9 4 6 7 3 2 1 3 5 4 2 1 1 4
22 21 20 20 19 18 18 19 19 19 21 20 16 14 14 15 17 21 12 11 14 12 13 19 21 21 15 9 8 9 6 4 4 5 2 7 4 1 1 5 6 5 3 2 4 2 3
20 20 20 20 18 17 17 16 18 19 15 12 13 14 14 17 22 16 26 21 11 8 5 11 16 17 10 11 8 11 7 6 6 6 5 6 2 2 3 4 5 4 4 1 2 7 1
17 18 18 18 19 17 17 14 15 14 15 19 18 22 28 21 17 13 9 5 3 4 5 10 11 8 8 4 6 12 8 4 6 5 4 6 3 3 3 4 3 2 1 2 1 5 2
15 16 16 15 15 15 16 14 14 19 21 20 21 27 11 15 10 9 4 10 9 5 6 6 8 6 8 6 3 8 11 8 4 3 4 2 2 3 4 1 1 2 1 1 1 2 3
16 14 14 14 13 11 10 11 14 19 17 15 13 9 4 7 6 4 5 3 3 6 3 3 4 4 3 7 4 5 6 8 4 5 6 2 1 1 2 1 2 2 2 3 3 3 2
19 15 13 11 10 8 8 5 3 7 9 7 3 3 7 8 6 6 6 3 5 6 3 1 2 4 4 5 4 4 4 4 3 5 4 5 2 2 1 2 1 2 4 3 5 4 5
20 18 16 13 10 7 4 1 1 0 3 7 7 6 8 5 4 3 1 4 10 5 3 3 1 2 4 2 2 2 2 3 2 5 3 4 5 4 3 3 3 1 4 4 5 2 5
20 20 19 17 14 12 8 5 3 3 4 3 3 5 6 4 2 2 2 6 6 5 3 4 2 4 3 2 3 2 1 3 3 3 4 4 4 2 2 1 2 2 1 2 5 2 2
18 19 19 20 18 17 15 7 4 3 3 5 4 5 4 3 1 3 4 4 1 3 1 2 2 2 3 1 2 1 2 2 2 1 2 3 3 2 0 1 2 1 5 3 3 2 5
17 18 19 20 21 20 19 12 7 4 1 2 2 1 9 4 2 4 4 2 3 2 2 3 3 3 3 3 3 3 5 2 4 3 2 4 3 2 1 5 7 2 1 2 3 4 4
16 18 19 20 21 23 23 18 9 5 2 1 0 2 8 4 2 4 2 4 3 1 3 3 2 2 2 1 1 1 2 1 5 6 3 1 3 3 8 2 4 4 7 6 4 5 4
16 18 20 21 21 22 23 22 14 9 3 1 2 2 7 3 4 2 1 2 2 1 1 2 3 3 2 2 2 1 1 3 5 2 3 2 1 3 7 4 2 4 5 4 3 3 7
12 15 18 20 21 21 22 22 19 11 5 3 1 2 5 8 8 6 4 2 2 1 1 1 1 1 2 1 1 1 1 2 4 3 5 3 3 6 6 4 3 4 6 7 8 3 4
10 13 16 18 20 21 20 21 20 14 8 2 3 2 2 1 4 3 2 4 3 3 2 2 0 2 3 2 2 3 2 1 2 4 3 4 4 4 6 10 8 14 12 8 14 18 10
6 9 13 16 19 21 22 20 20 17 9 8 3 2 3 3 2 3 4 2 4 1 3 1 2 1 3 4 6 6 4 4 5 2 5 2 3 0 5 9 6 10 14 16 18 19 18
4 8 11 14 17 20 21 20 19 18 13 8 5 4 2 1 2 3 2 2 2 1 1 1 4 1 3 7 9 10 9 6 3 7 7 5 2 3 6 4 8 7 7 12 6 6 10
4 7 10 12 15 17 19 20 19 18 17 14 9 3 1 1 1 3 4 2 2 2 2 1 4 3 2 3 10 12 13 13 9 10 9 5 4 2 4 6 3 5 6 7 12 8 16
4 6 7 9 13 15 17 18 18 17 15 14 14 8 4 1 3 2 4 4 3 2 3 4 5 5 4 5 2 5 3 1 1 1 6 4 4 2 1 2 10 7 1 5 5 8 9
6 6 7 9 13 15 15 16 17 15 14 11 13 12 5 3 4 3 2 3 3 3 2 3 3 3 1 3 2 1 3 2 1 0 7 4 2 4 1 1 5 4 1 2 3 5 3
7 7 8 10 13 14 16 16 15 15 13 13 11 12 7 3 2 5 3 3 4 2 2 2 3 3 4 2 1 2 3 2 2 3 4 3 2 8 6 4 9 7 7 4 2 5 1
10 10 10 12 15 15 16 17 17 16 14 13 12 13 12 7 10 8 7 6 4 4 3 5 3 2 2 3 3 3 3 3 2 3 5 7 6 4 4 4 9 9 7 6 4 6 10
12 12 13 16 16 17 17 18 18 18 17 15 12 14 15 10 9 13 13 14 15 8 4 6 3 3 7 3 1 2 3 2 4 3 2 3 6 5 10 8 6 8 16 15 22 27 36
Wind_Direction
9 8 15 19 18 17 32 32 31 41 42 53 60 66 69 76 76 116 128 117 115 139 144 156 143 142 140 98 74 99 124 139 121 126 143 135 116 100 101 101 90 78 98 79 96 71 73
13 12 13 23 28 29 40 38 43 41 45 47 58 59 62 76 83 106 128 128 120 137 147 147 160 126 119 72 84 97 121 138 126 138 142 141 121 119 93 69 63 101 99 94 68 51 44
19 19 19 27 37 34 36 36 36 41 50 43 62 65 66 73 74 100 124 119 117 135 136 137 140 148 75 68 91 100 127 136 121 119 121 110 121 116 111 95 104 98 74 23 30 37 17
28 26 26 29 37 35 44 47 41 36 50 62 75 66 70 75 83 107 119 116 115 126 144 127 124 157 72 93 104 119 117 122 107 106 111 100 104 102 67 113 54 62 54 74 334 10 18
29 32 29 31 37 39 52 44 40 54 71 78 74 69 69 76 83 91 116 120 119 121 130 127 139 126 106 108 105 98 117 130 133 121 111 110 97 73 73 76 42 12 147 172 329 25 338
34 38 37 35 39 51 54 50 53 85 85 70 78 77 89 76 93 109 104 104 111 109 124 133 127 106 114 82 85 94 108 120 116 124 111 60 52 72 35 52 194 180 132 96 267 349 343
33 41 42 43 44 55 62 64 76 84 81 84 86 86 93 84 112 109 108 98 77 69 75 71 75 87 99 93 92 96 106 107 103 80 66 29 66 78 56 42 120 105 85 71 266 112 341
41 40 46 47 46 54 64 77 78 85 88 92 92 90 108 73 113 116 100 87 85 105 58 61 66 69 69 76 80 66 88 81 57 77 39 28 82 261 321 59 83 60 89 327 292 317 350
39 47 49 54 56 56 62 78 83 95 95 81 89 104 95 83 108 103 106 105 104 106 88 25 30 39 37 57 47 26 44 68 73 52 30 104 149 315 81 43 73 42 111 66 237 322 256
37 44 53 54 60 59 68 83 89 85 97 98 82 99 100 79 92 109 88 57 19 19 90 339 359 37 16 40 54 38 38 65 48 119 77 81 342 66 61 65 94 119 172 92 31 33 275
41 36 45 57 61 63 71 84 104 114 110 96 91 122 83 47 59 69 358 329 335 345 72 323 334 8 24 65 96 20 32 62 73 77 79 257 62 59 60 188 148 162 164 184 186 84 30
47 43 36 45 60 69 75 88 115 137 127 115 103 104 64 16 22 10 351 358 17 41 49 322 313 354 46 35 39 42 52 71 105 72 38 70 36 63 149 83 72 102 92 45 40 86 13
44 45 45 41 32 52 72 77 126 168 177 165 162 335 357 356 329 323 344 30 52 74 271 1 45 33 59 20 35 47 25 27 99 79 2 353 342 323 161 87 358 101 57 343 351 7 227
34 41 42 40 39 20 1 350 110 45 210 227 249 263 314 338 337 312 287 55 66 216 232 232 140 75 89 22 43 52 78 38 65 87 98 132 319 189 172 227 182 141 122 146 233 274 286
33 32 36 34 32 28 13 327 281 237 235 249 250 289 305 326 353 129 78 51 171 211 174 138 76 72 17 37 127 92 80 181 207 176 135 127 300 323 186 53 103 147 52 171 102 88 3
34 33 31 31 29 27 21 21 2 314 231 225 269 298 347 7 41 145 83 113 80 221 156 69 112 159 147 199 93 94 208 217 187 166 127 189 54 217 311 111 43 122 155 56 16 360 291
34 34 32 30 25 25 24 25 33 23 55 180 240 228 8 20 86 100 98 131 133 103 164 166 172 129 153 170 171 198 186 220 195 155 89 132 101 282 94 201 180 126 199 103 124 164 204
38 35 33 31 28 21 23 23 29 35 73 22 305 58 4 5 31 32 75 131 145 70 56 71 71 74 129 138 71 78 199 250 165 145 129 54 133 218 218 211 181 180 193 156 142 225 234
38 34 33 31 27 26 20 20 20 24 36 24 48 59 16 37 100 3 47 60 79 102 1 53 52 46 46 101 55 69 45 18 145 122 144 173 17 346 344 6 48 215 205 182 126 96 204
39 34 30 28 29 25 19 18 18 20 27 59 94 38 46 55 74 117 130 153 126 174 147 150 152 89 80 56 48 220 218 232 195 161 144 131 172 196 203 203 145 218 213 203 186 173 211
30 26 25 24 24 25 22 14 18 21 23 68 47 91 91 353 19 85 96 159 144 178 212 192 157 195 159 163 189 213 187 140 162 174 136 126 235 200 258 260 247 248 242 213 213 225 218
25 21 18 17 17 17 18 18 18 22 22 38 61 106 95 96 77 60 7 213 164 195 150 247 202 186 190 200 198 206 156 197 203 141 163 174 257 6 271 263 255 261 248 236 240 246 255
2 5 9 9 10 9 10 14 18 27 37 44 49 80 117 26 84 98 216 161 220 112 258 270 201 130 254 244 253 259 248 253 212 167 185 162 181 24 272 311 302 289 243 207 202 209 211
323 343 357 0 3 4 5 7 13 20 29 40 36 27 48 194 143 180 172 156 181 229 244 221 193 170 292 292 301 274 265 259 243 226 196 151 140 164 277 332 317 248 218 183 207 232 212
299 326 348 357 359 0 360 1 4 12 18 23 33 26 2 171 203 259 207 191 180 213 203 225 241 235 277 313 2 331 336 274 138 173 213 195 138 289 272 251 293 303 207 132 170 284 218
283 307 328 341 350 354 352 353 354 357 5 9 16 19 4 335 252 177 177 204 184 178 336 202 208 196 177 72 49 276 250 287 254 126 41 118 81 154 117 282 263 258 292 117 134 290 211
265 283 307 325 338 345 350 347 345 344 348 358 0 5 358 311 260 234 227 203 176 164 178 228 174 139 160 105 160 217 277 226 265 212 171 113 150 216 222 263 279 252 211 16 39 260 327
274 283 302 316 324 331 338 342 343 339 338 338 343 349 356 308 283 247 238 231 215 198 174 162 109 209 98 144 165 217 202 243 287 194 182 178 157 196 158 223 273 172 98 174 239 308 311
277 284 291 301 310 314 323 329 329 334 331 328 331 331 333 302 281 277 259 246 241 243 245 208 285 169 180 104 223 141 226 215 180 253 192 248 196 182 190 219 234 207 242 270 292 298 301
Height
1508 1503 1497 1492 1487 1484 1480 1478 1475 1472 1470 1467 1466 1465 1464 1464 1466 1466 1470 1472 1472 1472 1475 1481 1486 1491 1494 1496 1502 1502 1503 1505 1506 1507 1509 1510 1512 1512 1519 1521 1523 1526 1531 1532 1535 1535 1537
1509 1504 1498 1494 1489 1486 1482 1479 1478 1475 1473 1471 1470 1469 1469 1469 1470 1470 1472 1473 1474 1477 1480 1484 1489 1493 1495 1500 1504 1504 1505 1507 1509 1510 1511 1511 1511 1516 1519 1523 1524 1529 1533 1535 1537 1537 1538
1511 1506 1501 1496 1492 1489 1485 1483 1480 1478 1477 1475 1474 1475 1473 1473 1473 1472 1475 1476 1477 1480 1484 1489 1494 1495 1498 1505 1506 1506 1507 1509 1510 1511 1512 1513 1515 1517 1519 1525 1530 1532 1537 1538 1538 1538 1539
1515 1509 1504 1500 1495 1492 1488 1485 1484 1481 1480 1480 1479 1479 1478 1477 1476 1476 1478 1480 1482 1485 1489 1494 1495 1501 1505 1508 1508 1508 1509 1511 1513 1514 1515 1516 1518 1518 1521 1527 1531 1536 1541 1543 1539 1538 1539
1518 1513 1508 1504 1499 1495 1492 1489 1487 1486 1484 1484 1483 1483 1482 1482 1481 1481 1482 1486 1487 1489 1490 1493 1502 1504 1509 1510 1511 1510 1511 1513 1514 1516 1517 1519 1520 1524 1527 1533 1545 1545 1547 1542 1540 1540 1540
1520 1516 1512 1508 1503 1499 1495 1494 1490 1488 1488 1488 1487 1487 1488 1488 1487 1488 1488 1491 1493 1495 1499 1504 1503 1508 1513 1514 1514 1513 1514 1515 1516 1518 1521 1522 1523 1530 1536 1545 1560 1545 1545 1541 1542 1545 1542
1522 1519 1516 1512 1507 1503 1500 1498 1496 1495 1493 1492 1492 1492 1492 1493 1494 1493 1495 1496 1501 1504 1505 1509 1513 1511 1514 1516 1517 1517 1516 1517 1519 1520 1526 1527 1538 1551 1544 1542 1541 1543 1545 1545 1545 1545 1545
1524 1521 1519 1516 1512 1507 1505 1503 1500 1501 1499 1497 1496 1498 1498 1499 1500 1502 1503 1500 1505 1510 1510 1516 1517 1515 1516 1517 1519 1519 1520 1521 1522 1529 1529 1537 1551 1545 1544 1543 1543 1544 1546 1549 1548 1545 1547
1526 1524 1521 1519 1515 1512 1509 1508 1506 1506 1504 1503 1502 1501 1502 1502 1504 1505 1505 1507 1510 1512 1517 1518 1518 1518 1520 1522 1524 1524 1524 1524 1528 1533 1537 1543 1547 1544 1544 1546 1548 1551 1552 1552 1554 1549 1546
1529 1526 1524 1522 1520 1516 1514 1511 1510 1509 1507 1507 1507 1506 1507 1507 1511 1509 1508 1508 1509 1511 1522 1528 1523 1525 1526 1524 1527 1527 1527 1528 1531 1540 1541 1546 1545 1545 1547 1549 1551 1548 1550 1551 1552 1558 1563
1533 1530 1527 1525 1523 1521 1518 1516 1514 1513 1513 1513 1512 1512 1511 1511 1511 1511 1510 1506 1506 1505 1533 1534 1528 1528 1527 1527 1531 1530 1530 1529 1535 1539 1542 1550 1547 1547 1548 1551 1549 1551 1550 1551 1552 1557 1568
1535 1533 1530 1528 1526 1523 1523 1521 1519 1517 1516 1516 1516 1516 1515 1515 1514 1514 1512 1511 1510 1523 1552 1540 1533 1532 1532 1530 1532 1533 1532 1533 1537 1541 1544 1549 1548 1548 1548 1549 1549 1550 1551 1553 1555 1563 1580
1537 1535 1533 1530 1528 1526 1524 1523 1523 1521 1519 1518 1517 1516 1516 1516 1516 1514 1513 1513 1526 1548 1543 1540 1536 1532 1533 1535 1536 1536 1538 1539 1546 1558 1567 1553 1550 1549 1549 1550 1550 1551 1558 1583 1576 1587 1564
1539 1537 1535 1533 1530 1527 1525 1523 1522 1522 1521 1520 1519 1518 1517 1517 1516 1514 1514 1517 1538 1547 1540 1536 1535 1536 1538 1538 1539 1540 1541 1549 1542 1546 1565 1569 1566 1549 1548 1549 1549 1551 1556 1583 1573 1591 1574
1542 1539 1536 1534 1531 1529 1526 1523 1521 1520 1520 1520 1519 1519 1518 1516 1516 1516 1517 1535 1545 1541 1534 1534 1535 1538 1539 1537 1538 1539 1541 1544 1542 1542 1550 1566 1558 1547 1549 1548 1550 1552 1562 1559 1579 1597 1582
1545 1542 1538 1534 1532 1529 1526 1523 1521 1519 1518 1519 1520 1519 1518 1517 1516 1518 1522 1535 1535 1534 1533 1534 1535 1536 1540 1539 1539 1539 1541 1540 1540 1540 1540 1546 1560 1549 1548 1548 1550 1549 1554 1565 1576 1583 1573
1547 1545 1541 1537 1533 1530 1526 1523 1521 1520 1519 1518 1519 1519 1519 1517 1518 1518 1533 1536 1534 1534 1534 1535 1536 1537 1538 1538 1538 1540 1541 1540 1539 1539 1539 1543 1550 1553 1549 1549 1550 1555 1556 1558 1563 1569 1572
1549 1547 1544 1540 1536 1532 1528 1524 1522 1520 1519 1520 1519 1520 1519 1518 1520 1523 1534 1530 1531 1532 1531 1532 1532 1532 1535 1536 1536 1537 1538 1538 1537 1538 1542 1543 1550 1558 1547 1543 1543 1545 1548 1552 1562 1557 1565
1551 1548 1546 1542 1539 1534 1530 1526 1523 1521 1520 1519 1519 1519 1520 1518 1530 1536 1530 1530 1531 1531 1531 1532 1532 1533 1533 1534 1537 1536 1536 1537 1538 1539 1542 1543 1552 1570 1551 1548 1545 1544 1543 1544 1548 1553 1556
1552 1550 1548 1544 1541 1537 1533 1529 1524 1521 1520 1520 1520 1523 1521 1520 1524 1528 1532 1533 1533 1532 1532 1532 1533 1532 1534 1535 1536 1537 1538 1538 1539 1540 1541 1542 1551 1549 1554 1537 1540 1541 1538 1539 1540 1556 1537
1553 1551 1549 1546 1543 1539 1536 1531 1527 1522 1521 1520 1520 1524 1525 1531 1528 1528 1530 1532 1533 1533 1533 1533 1534 1533 1533 1536 1536 1537 1537 1538 1539 1540 1541 1543 1549 1551 1543 1540 1538 1532 1530 1533 1534 1524 1527
1554 1551 1549 1547 1544 1541 1537 1534 1530 1525 1522 1522 1522 1523 1525 1527 1528 1529 1531 1531 1532 1532 1532 1533 1533 1533 1534 1536 1535 1537 1535 1537 1536 1540 1541 1543 1548 1545 1547 1531 1532 1529 1523 1523 1522 1518 1514
1553 1552 1550 1548 1545 1542 1539 1536 1532 1529 1525 1523 1523 1524 1524 1529 1529 1531 1532 1531 1531 1531 1531 1531 1532 1534 1534 1532 1531 1531 1531 1532 1532 1535 1540 1543 1547 1548 1539 1532 1530 1523 1504 1506 1506 1504 1501
1553 1552 1551 1549 1546 1544 1541 1538 1535 1531 1528 1527 1526 1525 1524 1529 1529 1529 1528 1529 1530 1531 1532 1532 1533 1534 1534 1532 1531 1529 1527 1528 1530 1532 1534 1541 1545 1550 1545 1537 1532 1490 1489 1490 1493 1488 1486
1552 1552 1550 1549 1547 1545 1542 1540 1538 1535 1533 1530 1527 1527 1526 1527 1526 1527 1527 1527 1527 1529 1530 1530 1531 1531 1531 1531 1533 1531 1531 1527 1529 1531 1533 1535 1540 1547 1552 1556 1514 1487 1484 1490 1491 1480 1471
1549 1549 1549 1549 1547 1546 1543 1541 1539 1537 1535 1534 1531 1528 1527 1528 1525 1523 1524 1525 1526 1527 1528 1527 1527 1528 1530 1532 1536 1531 1529 1523 1525 1531 1532 1534 1536 1543 1550 1545 1521 1487 1485 1484 1485 1487 1466
1547 1547 1547 1547 1546 1545 1543 1541 1539 1538 1537 1535 1533 1531 1528 1525 1523 1524 1524 1523 1522 1524 1525 1525 1525 1526 1527 1533 1536 1539 1538 1529 1527 1525 1534 1538 1541 1539 1540 1542 1512 1486 1485 1485 1488 1481 1469
1545 1545 1544 1544 1544 1543 1542 1541 1539 1537 1535 1535 1534 1532 1532 1528 1521 1520 1521 1522 1521 1522 1524 1523 1525 1525 1527 1531 1534 1533 1535 1527 1525 1521 1526 1528 1536 1536 1537 1540 1521 1482 1485 1487 1474 1467 1467
1543 1543 1543 1542 1541 1540 1540 1539 1538 1536 1534 1532 1532 1531 1530 1528 1522 1518 1517 1517 1519 1521 1521 1520 1521 1518 1518 1525 1528 1528 1527 1526 1522 1521 1517 1521 1509 1515 1513 1497 1477 1478 1474 1472 1471 1468 1464